Temperature
19 19 19 19 18 18 18 18 18 18 17 17 17 17 17 17 16 16 16 16 16 16 16 16 16 16 16 16 15 15 15 15 15 15 14 14 14 14 14 14 14 14 14
19 19 19 19 18 18 18 18 18 18 17 17 17 17 17 16 16 16 16 16 16 16 16 16 15 15 15 15 15 15 15 15 15 15 14 14 14 13 13 13 13 13 13
19 19 19 19 18 18 18 18 18 18 17 17 17 17 16 16 16 16 16 16 16 16 16 15 15 15 15 15 15 15 15 15 15 15 15 14 14 13 13 13 13 13 13
19 19 19 19 18 18 18 18 18 17 17 17 17 17 16 16 16 16 16 16 16 15 15 15 15 15 15 15 15 15 15 15 15 15 15 15 15 14 13 13 13 13 13
19 19 19 19 18 18 18 18 18 17 17 17 17 17 16 16 16 16 16 15 15 15 15 15 15 15 15 15 15 15 15 15 15 15 15 15 15 14 14 13 12 12 12
19 19 19 19 18 18 18 18 17 17 17 17 17 16 16 16 16 16 16 15 15 15 15 15 15 15 15 15 15 15 15 15 15 15 15 15 15 14 14 13 13 12 12
19 19 18 18 18 18 18 17 17 17 17 17 17 16 16 16 16 16 16 15 15 15 15 15 15 15 15 15 15 15 15 15 15 15 15 14 14 14 14 14 13 12 12
19 19 18 18 18 18 18 17 17 17 17 17 16 16 16 16 16 16 16 15 15 15 15 15 15 15 15 15 15 15 15 15 15 14 14 14 14 14 14 14 13 13 12
19 19 19 18 18 18 18 17 17 17 17 17 16 16 16 16 16 16 16 16 15 15 15 15 15 15 15 15 15 15 15 15 14 14 14 14 14 14 14 13 13 13 12
19 19 18 18 18 18 18 17 17 17 17 17 16 16 16 16 16 16 16 16 15 15 15 15 15 15 15 15 15 15 14 14 14 14 14 14 14 13 13 13 13 13 13
19 19 19 18 18 18 18 17 17 17 17 16 16 16 16 16 16 16 16 16 15 15 15 15 15 15 15 15 15 15 14 14 14 14 14 14 13 13 13 13 13 13 13
19 19 19 18 18 18 17 17 17 17 17 16 16 16 16 16 16 16 15 16 15 15 15 15 15 15 15 15 15 15 14 14 14 14 14 14 13 13 13 13 13 13 12
19 19 18 18 18 18 17 17 17 17 16 16 16 16 16 16 16 15 15 15 15 15 15 15 15 15 15 15 15 14 14 14 14 14 14 13 13 13 13 13 13 12 12
19 18 18 18 18 18 17 17 17 17 16 16 16 16 16 16 15 15 15 15 15 15 15 15 15 15 15 15 14 14 14 14 14 14 13 13 13 13 13 13 12 12 12
18 18 18 18 18 18 17 17 17 17 16 16 16 16 15 15 15 15 15 15 15 15 15 15 15 15 14 14 14 14 14 14 14 13 13 13 13 13 12 12 12 12 12
18 18 18 18 18 18 17 17 17 17 16 16 16 15 15 15 15 15 15 15 15 15 15 15 14 14 14 14 14 14 14 14 13 13 13 13 13 12 12 12 12 12 11
18 18 18 18 17 17 17 17 17 16 16 16 15 15 15 15 15 14 14 14 14 14 14 14 14 14 14 14 14 14 14 13 13 13 13 13 12 12 12 12 12 11 11
18 18 18 18 17 17 17 17 17 16 16 15 15 15 15 15 15 14 14 14 14 14 14 14 14 14 14 14 14 13 13 13 13 13 13 12 12 12 12 12 11 11 11
18 18 18 18 18 17 17 17 16 16 16 15 15 15 15 15 14 14 14 14 14 14 14 14 14 14 14 13 13 13 13 13 13 12 12 12 12 12 11 11 11 11 11
18 18 18 17 17 17 17 16 16 16 15 15 15 15 15 15 14 14 14 14 14 14 14 13 13 13 13 13 13 13 13 13 13 12 12 12 12 11 11 11 11 11 11
18 18 17 17 17 17 16 16 16 16 15 15 15 15 15 15 14 14 14 14 13 13 13 13 13 13 13 13 13 12 12 12 12 12 12 12 11 11 11 11 11 10 10
17 17 17 17 16 16 16 16 16 16 15 15 15 14 14 14 14 14 14 13 13 13 13 13 13 13 12 12 12 12 12 12 12 12 12 11 11 11 11 10 10 10 10
17 17 17 16 16 16 16 16 15 15 15 15 14 14 14 14 14 14 13 13 13 13 12 12 12 12 12 12 12 12 12 12 11 11 11 11 11 11 10 10 10 10 10
16 16 16 16 16 15 15 15 15 15 15 14 14 14 14 13 13 13 13 13 13 12 12 12 12 12 12 12 11 11 11 11 11 11 11 11 10 10 10 10 10 10 9
16 16 16 16 15 15 15 15 15 14 14 14 14 13 13 13 13 13 13 12 12 12 12 12 12 11 11 11 11 11 11 11 11 11 10 10 10 10 10 10 10 9 9
15 15 15 15 15 15 15 14 14 14 14 14 13 13 13 13 13 12 12 12 12 12 12 12 11 11 11 11 11 11 11 10 10 10 10 10 10 10 10 9 9 9 9
Wind_Speed
8 8 8 8 8 6 6 6 6 6 6 4 4 3 2 2 2 3 5 7 7 7 7 4 4 4 4 4 5 5 5 4 4 5 5 5 6 5 4 5 6 8 9
7 7 7 7 8 7 6 7 7 6 6 4 4 3 3 2 1 2 4 6 6 6 6 5 4 4 4 5 5 5 3 2 2 3 3 3 4 4 5 4 4 5 7
11 10 8 8 8 8 8 8 7 7 6 6 5 4 4 3 2 2 1 2 5 6 6 6 5 4 4 4 4 4 4 3 1 2 3 4 2 1 3 4 4 4 4
10 10 9 9 8 8 7 7 7 6 6 7 7 6 4 3 2 1 1 1 3 5 6 6 6 4 3 3 3 3 3 4 2 1 2 2 4 3 1 3 3 4 4
12 12 11 10 8 7 7 7 7 6 6 7 8 7 5 3 2 1 2 2 2 3 5 6 5 4 3 3 3 4 3 2 3 2 2 3 3 3 3 2 1 3 3
12 11 10 8 7 6 7 7 7 5 6 6 7 7 7 5 4 3 3 2 1 1 3 5 5 5 3 3 3 4 5 4 4 3 3 3 3 3 3 3 2 1 2
11 11 10 9 8 8 7 7 7 5 5 6 6 7 7 7 7 5 4 3 2 1 2 3 4 4 4 5 5 4 4 4 4 3 3 2 2 3 4 4 3 2 1
10 11 12 11 10 9 8 7 7 6 6 6 5 5 6 5 4 5 5 5 3 3 3 4 4 5 5 5 5 3 3 4 4 4 4 3 2 3 4 4 4 3 2
11 11 11 10 10 10 9 9 8 6 6 6 6 5 5 5 5 5 5 4 4 4 5 5 5 5 5 5 5 3 3 4 4 4 4 3 2 2 2 3 4 5 3
9 10 10 10 10 9 8 8 8 7 6 6 6 5 5 5 6 6 6 5 4 4 5 4 4 4 4 5 4 4 3 5 3 3 4 3 2 2 2 2 2 3 4
11 10 10 10 9 8 8 8 8 7 6 6 5 5 5 5 5 5 5 5 4 5 5 5 5 5 4 4 4 4 4 5 3 3 4 3 3 2 2 2 3 2 3
9 9 9 9 8 8 8 8 7 7 7 6 6 6 5 5 5 5 4 4 4 4 5 5 5 5 5 4 5 5 5 5 4 3 4 3 3 3 2 2 3 3 3
8 7 7 8 8 8 8 8 8 7 6 6 6 6 6 6 6 5 4 4 4 4 4 5 5 5 5 5 5 5 5 5 4 4 4 3 4 3 2 3 3 2 3
8 8 8 7 8 8 8 8 7 7 7 7 7 7 7 7 6 5 5 5 5 5 4 4 4 4 5 5 5 5 5 4 4 4 4 4 4 4 3 3 3 3 3
7 9 9 8 8 7 7 7 7 6 7 7 7 7 6 6 6 6 5 5 5 5 4 4 4 3 3 5 6 6 5 5 4 3 2 3 4 5 5 4 4 5 4
8 8 8 8 8 8 8 8 7 7 7 8 8 7 7 6 6 6 5 5 5 4 4 4 4 3 3 6 9 7 5 5 5 4 2 2 2 3 5 6 7 8 6
7 8 9 9 9 9 9 9 8 7 7 7 7 7 7 7 7 6 6 5 5 4 4 4 4 3 3 6 9 10 6 5 4 4 3 2 2 3 2 3 4 4 5
6 7 7 7 7 7 7 7 7 7 8 7 7 7 8 7 6 6 6 5 4 4 4 4 4 4 3 6 8 9 6 4 3 3 4 4 3 3 4 4 3 1 1
5 6 7 7 7 7 8 8 8 8 8 8 8 8 8 8 8 7 6 5 5 4 4 4 5 4 4 6 8 7 4 4 3 3 3 4 4 5 7 5 4 1 1
3 4 5 5 6 6 7 9 8 8 9 9 9 8 8 9 9 8 6 4 5 5 5 4 4 5 4 5 7 7 4 4 2 2 2 4 5 6 7 6 5 4 3
3 4 5 5 6 6 8 9 8 9 9 8 8 8 8 8 8 7 6 6 6 5 5 4 3 3 4 5 7 7 4 4 4 3 2 2 5 6 6 6 5 6 4
2 4 5 5 5 6 7 8 8 7 6 6 7 8 8 7 6 7 6 6 7 6 5 4 3 2 2 4 6 7 7 5 4 4 3 3 5 6 6 5 5 5 4
2 3 5 5 4 5 7 7 6 5 6 6 6 7 7 6 7 7 7 6 6 5 5 5 4 3 2 3 5 7 8 7 4 3 5 5 5 4 3 4 5 4 3
2 3 5 5 5 5 5 6 5 6 6 6 5 5 6 5 5 6 6 6 7 6 6 6 5 4 3 3 3 3 3 5 4 3 3 4 4 3 2 2 2 2 3
2 2 5 6 6 5 4 4 5 6 6 5 4 5 5 6 5 5 5 7 7 9 9 7 7 6 6 7 8 6 5 4 4 3 1 1 1 2 2 1 1 1 2
2 2 4 5 6 5 5 4 5 6 6 5 4 5 4 4 4 4 3 4 5 8 10 10 9 7 8 8 9 9 8 8 8 5 3 3 3 4 4 4 3 3 3
Wind_Direction
191 178 169 158 152 151 149 141 136 135 128 117 111 103 92 76 66 68 79 82 85 90 91 93 90 97 102 109 112 106 96 90 102 88 65 44 46 56 61 63 68 66 70
178 177 171 163 162 166 165 153 151 151 149 141 138 137 132 118 113 71 70 80 89 93 98 95 99 101 100 98 103 107 107 109 112 114 102 65 28 29 46 55 70 63 65
182 180 175 172 168 170 170 166 165 160 155 142 118 98 77 60 52 48 47 57 94 98 101 105 105 104 109 120 123 122 122 133 70 102 133 135 167 54 22 38 53 56 58
182 178 176 176 177 179 171 162 166 158 156 146 139 138 139 149 182 181 162 74 88 100 103 108 109 107 108 117 127 120 119 131 130 57 64 124 144 140 101 19 25 44 56
183 180 178 180 177 170 162 163 162 159 161 156 152 147 151 165 162 141 123 98 61 90 105 109 106 107 109 115 108 100 96 111 128 127 107 86 75 89 126 131 24 28 26
186 182 177 170 166 162 155 154 157 166 167 160 157 157 161 161 153 151 144 133 98 71 96 105 106 108 111 112 110 104 98 93 92 93 101 122 124 131 124 135 138 97 10
176 172 167 166 164 162 161 159 159 162 166 159 164 169 170 169 172 172 168 158 148 142 138 118 114 112 113 109 105 102 99 100 100 102 100 100 118 132 129 127 133 122 10
174 175 176 174 171 167 164 163 167 169 167 163 168 171 171 175 177 177 172 172 173 175 161 137 126 119 117 114 107 105 105 101 106 105 103 96 92 109 127 138 136 113 45
176 176 176 174 172 171 173 173 168 165 169 171 168 169 174 173 175 174 169 168 171 168 151 138 131 125 122 119 112 105 107 102 98 100 99 98 96 100 107 125 141 142 142
176 177 176 177 176 176 176 171 169 170 170 168 172 172 169 166 166 165 168 172 172 159 150 146 142 137 131 122 116 112 113 105 104 109 101 96 99 97 99 117 118 130 144
179 179 179 179 175 171 171 172 174 169 168 172 170 160 162 159 156 160 169 169 165 162 160 158 153 147 142 136 129 129 125 119 110 103 107 106 108 105 100 105 101 102 117
178 177 176 172 172 172 175 177 178 177 177 173 164 163 159 153 154 160 164 155 151 160 162 156 152 156 152 147 143 142 132 132 131 124 112 115 116 105 103 104 105 111 114
169 167 167 172 177 179 179 178 183 183 176 167 160 158 157 156 160 162 153 143 139 139 144 145 151 157 154 148 148 144 143 144 146 144 141 146 127 119 114 107 111 112 104
173 170 172 179 182 183 183 182 186 181 173 166 162 164 169 169 167 158 149 148 144 143 142 140 148 154 154 151 149 142 141 141 145 155 159 161 155 160 149 135 137 126 111
173 177 180 182 183 185 189 187 184 178 171 167 169 175 172 166 157 149 152 152 150 150 148 136 132 138 154 166 158 152 148 143 141 144 158 167 162 163 160 154 157 145 136
183 184 183 182 186 189 191 189 183 178 169 172 177 173 164 162 160 159 156 149 150 143 135 141 145 149 164 164 164 156 151 155 156 159 163 160 152 160 155 152 154 157 157
188 185 188 190 193 192 189 187 185 173 168 173 174 170 166 165 167 165 156 157 163 154 150 159 152 154 164 155 157 155 146 148 158 164 167 164 145 137 134 140 143 157 167
193 192 191 192 193 189 184 179 171 166 171 175 176 172 168 167 164 161 165 169 165 160 162 164 161 157 166 154 148 151 140 138 154 165 168 162 162 153 149 136 119 116 161
187 193 191 188 182 180 178 168 171 173 176 182 184 182 176 171 169 171 176 175 161 161 166 171 168 168 178 165 154 143 142 146 165 174 163 161 167 166 151 140 143 147 264
170 174 174 170 173 183 171 166 175 177 186 191 189 184 179 177 179 182 180 176 169 172 166 170 177 176 184 177 164 151 150 159 174 181 190 177 177 175 162 158 162 181 220
171 167 160 165 181 180 168 172 180 192 196 188 182 181 184 183 183 179 174 167 167 163 163 168 180 185 189 186 176 163 159 177 180 189 209 219 188 180 176 170 181 195 184
162 157 157 172 178 169 166 172 190 195 180 172 178 181 183 185 182 171 172 167 161 161 167 166 178 211 214 197 192 184 179 171 180 202 208 205 180 173 176 178 186 182 162
172 167 163 168 172 171 169 177 192 173 161 163 178 183 181 181 174 172 173 171 169 172 181 177 189 216 228 218 204 194 186 177 185 205 195 186 180 175 184 191 180 168 161
182 170 159 164 180 183 179 181 174 162 158 166 174 176 174 175 172 177 177 179 182 183 189 192 198 208 216 215 207 204 192 187 197 202 192 186 179 174 178 176 179 177 180
198 174 172 177 185 183 181 170 162 157 159 166 169 176 179 179 177 183 191 194 199 194 193 201 196 196 215 222 205 194 197 197 194 165 134 131 167 196 208 209 208 202 197
194 186 180 179 182 177 177 172 166 164 164 171 175 177 177 180 179 179 192 211 204 203 201 199 194 206 210 204 201 201 197 190 174 154 175 196 203 207 210 211 220 215 215
Height
1537 1539 1540 1542 1544 1546 1547 1548 1550 1551 1552 1553 1553 1554 1554 1554 1555 1555 1555 1555 1555 1555 1556 1556 1556 1557 1557 1557 1558 1558 1558 1558 1559 1559 1559 1559 1560 1560 1559 1559 1558 1557 1557
1535 1537 1539 1541 1543 1544 1546 1548 1549 1550 1551 1552 1553 1554 1554 1555 1555 1555 1555 1555 1556 1556 1556 1556 1556 1557 1557 1558 1558 1559 1559 1559 1560 1560 1559 1560 1562 1561 1561 1561 1560 1559 1558
1532 1535 1537 1539 1541 1543 1545 1546 1548 1549 1551 1552 1553 1553 1554 1554 1555 1555 1555 1556 1556 1556 1556 1556 1557 1557 1558 1558 1559 1559 1559 1559 1560 1560 1561 1560 1561 1562 1563 1562 1562 1561 1560
1530 1532 1535 1537 1539 1541 1543 1545 1547 1548 1550 1551 1551 1552 1553 1554 1554 1555 1555 1556 1556 1556 1557 1557 1557 1558 1558 1558 1559 1559 1560 1560 1560 1560 1560 1561 1561 1561 1562 1564 1563 1562 1562
1527 1530 1532 1535 1537 1539 1541 1543 1545 1547 1548 1549 1550 1551 1552 1553 1554 1555 1555 1556 1556 1557 1557 1557 1557 1558 1558 1558 1559 1559 1559 1560 1560 1560 1560 1560 1560 1561 1561 1562 1563 1563 1563
1525 1527 1530 1533 1536 1538 1540 1542 1544 1545 1547 1548 1549 1550 1551 1552 1553 1554 1555 1555 1556 1556 1557 1557 1557 1557 1558 1558 1558 1559 1559 1559 1559 1560 1560 1560 1560 1561 1561 1561 1562 1563 1563
1522 1525 1528 1531 1533 1536 1538 1540 1542 1543 1545 1547 1548 1549 1550 1551 1552 1553 1554 1554 1555 1556 1556 1557 1557 1557 1558 1558 1558 1559 1559 1559 1559 1559 1560 1560 1560 1561 1561 1561 1562 1563 1564
1519 1522 1525 1528 1531 1533 1536 1538 1540 1542 1543 1545 1546 1548 1549 1550 1551 1552 1553 1553 1554 1555 1556 1556 1557 1557 1557 1558 1558 1558 1559 1559 1559 1559 1560 1560 1560 1560 1561 1562 1562 1562 1564
1517 1520 1523 1526 1529 1531 1534 1536 1538 1540 1542 1543 1545 1547 1548 1549 1550 1551 1552 1552 1553 1554 1555 1556 1556 1557 1557 1558 1558 1558 1558 1559 1559 1559 1559 1560 1560 1560 1561 1562 1562 1563 1563
1515 1518 1521 1524 1527 1529 1532 1534 1536 1538 1540 1542 1543 1545 1546 1547 1548 1550 1551 1551 1552 1553 1554 1555 1556 1556 1557 1557 1557 1558 1558 1559 1559 1559 1559 1559 1560 1560 1561 1561 1562 1562 1563
1513 1515 1519 1522 1525 1528 1530 1533 1535 1537 1538 1540 1542 1543 1544 1546 1547 1548 1549 1550 1551 1552 1553 1554 1555 1555 1556 1557 1557 1557 1558 1558 1558 1559 1559 1559 1559 1560 1560 1561 1561 1561 1562
1512 1514 1517 1520 1523 1525 1528 1531 1533 1535 1537 1538 1540 1541 1543 1544 1545 1546 1548 1549 1550 1551 1552 1553 1554 1554 1555 1556 1556 1556 1557 1557 1558 1558 1558 1559 1559 1559 1560 1560 1560 1561 1561
1511 1513 1516 1518 1520 1523 1525 1528 1530 1532 1535 1536 1538 1539 1540 1542 1543 1545 1546 1547 1548 1550 1551 1552 1553 1553 1554 1555 1555 1556 1556 1557 1557 1558 1558 1558 1559 1559 1559 1559 1559 1560 1560
1509 1511 1514 1516 1518 1521 1523 1525 1528 1530 1532 1534 1535 1537 1538 1540 1541 1543 1544 1546 1547 1548 1549 1550 1551 1552 1553 1554 1554 1555 1555 1556 1556 1557 1557 1557 1558 1558 1558 1558 1558 1559 1559
1508 1509 1511 1513 1516 1518 1521 1523 1525 1527 1529 1531 1533 1535 1536 1538 1540 1541 1542 1544 1546 1547 1548 1549 1550 1551 1551 1552 1553 1554 1554 1555 1555 1555 1556 1556 1556 1556 1557 1557 1557 1557 1558
1506 1507 1509 1511 1513 1515 1518 1520 1522 1524 1527 1528 1530 1532 1534 1536 1537 1539 1541 1542 1544 1545 1546 1547 1548 1549 1550 1551 1551 1552 1553 1553 1554 1554 1554 1555 1555 1555 1555 1555 1555 1556 1556
1504 1505 1507 1509 1511 1512 1514 1517 1519 1522 1524 1526 1528 1530 1532 1533 1535 1537 1539 1541 1542 1544 1545 1546 1547 1548 1549 1549 1550 1551 1551 1552 1552 1553 1553 1553 1553 1553 1553 1554 1554 1554 1554
1502 1503 1505 1507 1509 1510 1512 1515 1517 1519 1521 1523 1525 1527 1529 1531 1533 1535 1536 1538 1540 1541 1543 1544 1545 1546 1547 1548 1548 1549 1549 1550 1550 1551 1551 1551 1552 1552 1552 1552 1552 1552 1552
1499 1501 1502 1504 1506 1508 1510 1512 1514 1516 1518 1520 1522 1524 1526 1528 1530 1532 1534 1536 1538 1539 1540 1542 1543 1544 1545 1546 1546 1547 1547 1548 1548 1548 1549 1549 1549 1550 1550 1550 1550 1550 1550
1497 1499 1500 1502 1504 1505 1508 1510 1511 1513 1515 1517 1519 1522 1524 1526 1527 1529 1531 1533 1535 1537 1538 1539 1540 1541 1542 1543 1544 1544 1545 1545 1546 1546 1547 1547 1547 1547 1547 1547 1547 1547 1547
1495 1496 1498 1499 1501 1503 1505 1506 1508 1510 1512 1515 1517 1519 1521 1522 1524 1526 1528 1530 1532 1534 1535 1536 1537 1538 1539 1540 1541 1542 1542 1543 1543 1543 1544 1544 1545 1545 1545 1545 1545 1545 1545
1493 1494 1495 1497 1499 1500 1502 1503 1505 1507 1510 1512 1513 1515 1517 1519 1521 1523 1525 1527 1528 1530 1531 1533 1534 1535 1536 1537 1538 1539 1539 1540 1540 1540 1541 1542 1542 1542 1542 1542 1542 1542 1543
1491 1492 1493 1494 1496 1498 1499 1501 1502 1505 1507 1509 1510 1512 1514 1516 1518 1519 1521 1523 1524 1526 1527 1529 1530 1531 1533 1534 1535 1536 1536 1536 1537 1537 1538 1538 1539 1539 1539 1539 1539 1539 1539
1488 1489 1491 1492 1493 1495 1497 1499 1500 1502 1504 1505 1507 1508 1510 1512 1514 1515 1517 1519 1520 1522 1523 1525 1526 1527 1528 1530 1531 1532 1532 1533 1533 1534 1534 1535 1535 1535 1535 1535 1535 1535 1535
1486 1487 1488 1489 1490 1492 1494 1496 1498 1500 1501 1502 1504 1505 1506 1508 1510 1511 1513 1514 1516 1518 1519 1521 1522 1523 1524 1525 1527 1528 1529 1529 1530 1530 1530 1531 1531 1531 1531 1531 1531 1532 1531
1483 1484 1486 1487 1488 1490 1492 1494 1495 1497 1498 1499 1500 1501 1502 1504 1506 1507 1509 1511 1513 1514 1516 1517 1519 1520 1521 1522 1523 1524 1525 1526 1526 1527 1526 1526 1527 1527 1527 1527 1527 1527 1527